Theta_e
313 313 312 312 313 312 312 312 311 309 307 306 306 305 305 305 305 305 305 305 305 305 306 306 307 307 307 308 307 308 308 309 310 312 315 316 317 315 312 312 314 313 313 314 313 314 313 314 314 311 315 316 312 314 312 314 326 338 340 331 323 323 324 323 321 318 321 323 318 316 316 318 317 313 311 310 316 318 315 316 316 313 311 310 312 311 312 319
313 312 312 313 312 312 312 312 311 309 308 307 306 306 305 305 305 305 305 305 305 305 306 306 306 307 307 308 307 308 308 310 312 312 314 317 315 312 312 313 313 314 314 314 314 314 315 316 312 312 319 317 311 315 316 311 321 339 335 327 327 327 321 319 322 318 316 318 318 317 314 316 316 315 313 311 317 316 315 317 316 319 317 313 313 313 316 322
312 312 312 312 311 311 312 311 311 309 309 307 306 306 305 305 305 305 305 305 305 305 306 306 306 307 307 307 308 308 310 312 312 311 314 317 315 311 312 313 313 314 314 314 315 313 315 315 310 313 321 317 313 317 322 315 315 325 329 328 328 328 321 315 319 320 316 316 319 317 313 315 314 313 312 313 318 316 319 321 317 322 323 319 315 313 319 325
311 311 311 311 311 310 310 311 310 309 308 307 307 307 305 305 305 305 306 305 305 306 305 307 306 307 307 307 308 308 311 312 310 313 315 317 314 312 313 313 313 313 314 314 314 314 313 312 310 316 320 317 320 320 319 316 313 317 324 326 322 321 320 316 318 320 317 315 318 317 314 315 313 312 313 315 318 317 321 322 319 323 327 324 317 313 319 324
311 311 311 311 311 310 310 311 311 309 309 309 308 307 306 306 306 306 306 305 306 306 306 306 306 307 307 307 308 308 313 313 310 313 315 315 313 312 313 312 313 313 314 314 314 314 312 310 313 322 321 318 323 322 315 312 313 315 316 317 317 317 316 317 318 317 315 313 316 317 315 314 312 312 316 316 318 320 320 318 318 321 322 322 317 312 315 319
311 310 311 310 311 311 311 311 311 310 311 312 310 308 307 306 306 306 306 306 306 306 306 306 307 307 307 309 309 308 313 313 310 313 313 313 312 312 313 312 313 313 313 315 313 313 314 314 316 324 322 318 318 318 316 312 313 317 314 314 316 316 315 316 317 315 315 315 317 318 314 314 314 314 315 315 317 318 314 313 314 313 311 314 313 311 315 317
310 310 310 310 311 311 311 311 310 310 312 313 312 309 308 306 305 306 306 307 307 307 307 307 307 308 308 309 310 312 315 314 312 313 313 312 312 313 312 312 313 314 314 314 314 316 320 320 319 322 321 318 315 315 317 315 317 323 318 315 316 314 315 316 316 316 315 316 317 315 312 314 317 315 312 314 317 317 311 306 306 305 306 310 313 312 313 314
310 309 310 310 310 310 311 311 310 310 312 313 313 311 309 307 306 306 306 306 307 308 308 309 308 308 310 310 313 316 315 315 315 314 313 312 313 312 312 313 314 315 315 313 313 316 319 319 316 317 320 316 314 315 316 316 321 323 318 317 317 315 318 317 316 317 315 315 314 313 314 316 317 313 312 318 319 317 312 307 306 307 309 312 317 316 309 309
310 309 310 310 310 310 310 311 310 311 311 312 313 312 309 308 306 305 306 306 306 308 309 310 310 310 310 310 312 315 312 314 316 315 313 312 313 312 312 313 315 315 315 313 312 313 315 317 316 315 317 315 314 317 316 317 318 317 317 320 318 317 320 318 316 318 317 315 313 313 317 316 313 311 314 320 318 314 313 314 313 314 317 317 319 314 306 307
310 310 310 310 310 310 310 311 311 312 312 311 313 312 310 307 307 306 305 306 306 307 309 310 311 310 311 310 310 311 313 316 316 314 313 312 312 312 312 312 315 316 314 314 312 312 314 315 313 311 315 316 315 315 315 316 316 315 319 320 318 320 321 317 316 319 317 316 314 314 318 317 312 312 315 318 314 312 318 319 314 316 321 318 318 313 307 307
311 311 311 311 310 309 309 311 311 312 312 311 313 313 311 308 307 306 305 306 307 308 309 310 311 311 311 312 313 311 314 318 316 314 313 312 312 312 313 312 315 316 315 314 312 312 313 312 309 309 314 314 315 316 313 314 314 315 319 318 319 323 321 317 317 317 314 315 315 314 315 315 312 314 316 316 310 311 322 323 314 316 320 316 317 315 308 307
311 311 311 311 311 310 310 311 311 312 312 312 313 313 312 310 309 307 306 306 308 308 309 311 311 312 311 311 315 314 316 318 315 314 313 312 312 312 312 314 315 316 315 314 312 312 312 311 311 314 315 313 315 317 313 313 313 315 318 317 323 328 322 316 317 316 313 314 316 314 314 317 315 315 316 313 309 310 318 323 317 316 317 315 315 314 309 306
311 311 311 312 311 311 310 311 311 312 313 313 313 313 312 311 310 308 307 307 308 308 310 311 312 312 310 311 314 313 315 317 315 314 313 312 312 312 313 315 315 315 316 314 312 312 312 311 313 315 314 317 318 312 315 317 315 317 317 318 324 328 324 315 313 314 313 315 316 314 317 325 324 318 315 311 310 312 317 320 317 316 316 315 314 314 313 307
311 311 311 311 311 311 310 310 311 312 313 313 313 312 311 310 310 309 308 308 308 310 311 312 313 311 309 312 312 312 314 314 315 314 313 312 312 313 314 315 316 315 315 314 313 312 313 311 312 314 312 316 315 310 322 328 322 320 314 322 326 319 325 322 314 315 314 313 314 314 318 324 326 322 316 310 310 315 319 319 315 315 315 314 314 313 314 308
312 311 311 311 311 310 309 310 310 311 313 313 312 311 310 310 310 310 310 310 310 311 312 312 313 312 313 314 311 313 314 314 316 314 312 313 312 313 315 315 315 314 314 313 313 312 312 312 314 318 313 313 315 317 331 331 329 328 314 324 328 316 329 332 317 316 315 312 312 314 319 320 320 320 314 309 309 313 318 317 313 314 314 313 314 311 312 309
313 312 312 313 312 311 310 309 309 310 311 312 311 311 310 311 312 311 311 312 313 313 312 313 312 312 314 314 312 314 314 315 317 314 313 313 312 314 315 315 314 313 314 312 313 313 313 316 315 314 313 315 323 333 338 328 331 333 318 321 329 319 326 326 317 315 314 314 312 313 320 323 321 317 312 308 309 311 315 316 314 313 312 311 311 310 310 309
313 313 313 313 313 312 311 310 310 309 310 311 310 311 311 312 313 311 312 314 315 313 312 313 310 309 311 310 313 317 315 315 316 314 313 313 313 315 314 314 312 311 314 312 313 314 313 317 314 313 318 320 325 333 333 324 327 332 320 320 328 324 321 323 322 316 311 314 314 314 316 319 320 317 314 313 310 311 316 317 315 312 310 309 309 309 309 309
313 313 313 314 313 313 312 312 311 309 311 311 310 312 312 313 313 313 315 314 312 310 310 311 309 310 311 309 313 316 314 315 316 314 314 314 314 314 315 312 309 311 316 315 314 315 315 319 321 321 324 322 322 326 324 322 328 332 326 324 326 322 319 323 326 317 311 313 315 315 315 315 317 314 317 318 311 313 318 316 313 311 309 309 308 309 308 308
314 314 314 314 314 314 312 312 311 310 311 311 312 314 312 313 314 315 316 313 311 308 309 312 309 311 313 311 313 314 314 315 315 314 314 315 313 313 314 311 313 317 318 319 316 316 319 322 324 324 323 321 320 322 321 322 326 331 334 334 330 323 321 324 327 321 314 313 316 316 316 316 316 314 315 318 312 313 316 313 311 310 309 309 308 308 307 308
314 314 314 314 314 314 312 311 310 310 311 312 314 313 311 316 315 313 316 317 317 312 312 316 312 313 316 315 316 314 314 315 314 315 314 313 313 314 314 311 318 321 319 325 320 314 318 321 324 325 324 323 320 319 320 322 323 325 329 330 327 324 324 325 325 321 313 313 320 319 315 315 315 316 314 315 315 315 316 315 312 311 309 309 308 308 308 307
315 314 314 313 313 313 312 311 310 310 311 312 313 310 312 318 311 309 317 319 315 310 314 317 311 313 315 313 314 313 315 316 314 315 314 312 313 314 316 315 320 321 320 325 320 314 318 322 324 325 321 319 317 318 319 321 320 321 323 323 323 324 324 322 320 318 313 314 322 320 315 315 314 314 313 313 315 316 316 317 314 312 310 309 309 308 308 307
315 315 314 313 313 312 312 311 310 310 311 312 313 312 312 314 310 310 314 316 315 310 313 314 311 315 314 311 313 313 317 321 317 316 314 312 313 315 317 320 322 322 319 320 319 318 321 323 322 320 319 318 318 317 317 318 318 321 324 320 322 325 322 322 320 315 313 314 321 322 317 315 314 313 312 311 312 312 312 313 313 313 312 310 309 308 307 308
316 315 314 313 312 312 311 311 310 310 311 313 313 312 313 314 313 312 312 315 319 315 313 314 314 318 316 312 313 314 317 322 320 318 314 312 314 316 317 320 322 322 319 318 322 322 323 326 321 317 319 319 319 317 316 317 317 320 324 321 323 324 321 322 322 316 313 313 318 321 316 314 314 314 313 312 311 311 311 311 311 310 311 311 310 309 309 309
317 315 315 314 312 312 312 310 310 311 311 312 313 313 314 316 314 313 315 316 318 318 316 313 312 317 319 313 312 317 317 318 319 317 314 312 315 315 316 319 320 321 319 318 321 321 322 323 316 315 319 319 321 319 317 319 321 322 322 320 322 323 321 322 322 319 318 317 317 319 319 321 321 318 317 317 316 314 312 312 311 310 310 310 310 310 309 309
317 316 315 314 313 313 312 311 311 311 311 312 312 312 314 316 314 312 316 315 314 318 315 310 312 315 316 312 313 318 317 317 319 317 312 312 315 315 315 318 319 320 318 317 318 318 320 318 314 318 317 317 321 320 321 323 323 325 325 321 320 322 321 320 320 319 324 328 319 316 323 334 332 323 319 321 321 320 316 314 314 312 310 309 309 309 309 310
318 317 315 315 313 313 312 312 311 311 312 312 311 311 314 316 315 312 315 317 314 316 314 311 313 314 311 313 315 316 315 317 316 313 312 311 313 314 315 316 316 319 318 317 317 317 318 315 316 324 321 318 320 319 323 322 320 325 325 321 318 318 318 319 319 319 327 331 317 314 326 331 326 322 324 327 327 328 324 320 319 315 313 312 310 309 309 310
319 317 316 315 313 313 313 312 311 311 313 313 310 311 314 316 315 311 313 318 314 314 316 313 311 311 312 313 313 312 312 315 314 312 312 312 312 313 316 316 314 316 316 317 319 317 318 316 316 322 323 322 320 320 323 318 321 328 321 319 320 317 318 319 318 320 325 325 318 321 328 325 322 322 323 324 325 326 324 323 322 318 316 316 313 310 310 310
320 317 316 315 313 313 313 311 312 312 313 313 310 311 315 316 314 311 311 314 312 313 317 314 310 310 314 312 311 312 313 314 316 315 311 311 313 313 317 318 316 317 317 318 319 316 317 321 319 319 321 321 322 326 324 316 322 326 316 316 320 319 321 320 319 321 322 322 322 323 321 322 328 326 321 321 322 325 326 326 325 320 319 320 319 314 310 308
320 318 315 314 313 313 313 312 313 312 312 313 312 313 316 314 313 315 315 312 312 315 315 314 312 312 314 312 311 315 315 315 317 315 311 311 312 313 316 317 316 317 314 314 318 316 315 318 317 318 320 321 323 323 318 317 321 318 312 317 320 321 323 324 325 325 324 324 325 325 322 323 327 326 326 322 323 328 327 326 323 319 322 325 326 319 311 307
320 318 315 314 314 314 313 313 313 312 312 313 313 314 315 315 313 313 314 313 314 318 313 313 314 315 316 313 313 315 315 317 316 314 314 314 314 314 314 313 317 320 316 315 318 317 314 312 312 317 319 319 322 317 312 317 318 314 319 325 324 326 327 328 328 324 325 327 325 326 325 323 325 328 330 325 325 329 325 325 324 323 327 329 329 321 310 307
320 319 316 314 315 315 314 313 312 313 313 313 315 314 316 320 318 313 313 314 315 318 315 314 315 314 315 314 315 315 316 317 315 314 316 315 316 317 315 314 318 322 320 319 320 317 314 314 315 317 316 318 322 318 313 314 313 318 331 330 326 330 328 328 330 326 329 328 323 322 320 320 324 327 329 326 325 326 324 326 331 333 336 333 331 322 309 306
319 319 317 315 315 315 314 313 312 313 314 314 315 315 315 319 319 316 315 315 316 320 319 319 317 315 315 315 315 315 316 318 315 315 318 316 316 316 316 317 318 320 319 319 319 318 316 319 319 316 313 317 324 324 318 315 314 320 330 327 325 329 327 327 328 326 328 324 317 318 319 319 321 323 326 325 324 324 322 322 326 332 333 327 326 320 308 305
318 318 317 315 316 316 314 314 313 313 315 315 315 317 317 317 317 317 317 318 319 319 320 321 318 315 315 316 316 315 316 318 316 316 317 316 317 316 316 319 317 319 323 319 316 319 320 319 317 315 315 318 321 322 321 320 318 319 324 326 327 328 330 335 331 323 323 323 316 314 318 322 323 324 323 320 319 323 323 320 319 321 322 319 316 313 309 306
315 317 317 316 316 316 315 314 313 313 315 315 315 317 318 317 318 318 317 317 321 321 320 320 317 315 316 318 319 315 315 318 316 317 317 317 319 318 318 319 315 320 327 321 317 320 320 319 318 317 318 319 317 318 324 324 319 317 320 324 326 328 333 339 336 328 325 327 320 314 320 328 330 328 325 321 322 326 327 323 318 316 315 312 310 310 310 307
311 314 316 316 316 316 315 313 313 314 315 315 316 317 316 316 320 322 319 317 323 324 319 317 317 317 318 320 320 315 316 318 315 317 319 317 319 318 318 318 315 319 324 319 318 320 318 321 324 318 316 317 316 318 324 323 318 318 320 322 324 326 329 326 324 323 324 326 325 320 323 327 328 326 324 323 325 327 325 321 319 319 315 312 313 312 310 307
311 311 314 316 316 315 315 313 313 314 315 316 317 316 316 318 320 322 320 319 323 323 318 317 320 320 318 319 320 315 316 320 317 318 319 317 318 318 317 318 315 315 316 314 321 323 319 322 320 314 315 316 316 319 320 320 320 318 318 322 320 318 325 326 318 314 316 321 325 324 325 325 324 323 321 320 322 321 319 320 322 321 316 316 319 314 309 307
312 311 313 316 316 316 315 313 313 314 315 316 317 316 316 318 319 320 322 320 320 319 318 321 321 321 320 319 320 318 317 320 318 318 319 317 319 319 317 318 316 314 314 314 320 323 321 323 318 314 317 314 311 318 319 315 318 320 322 323 317 314 323 328 323 322 322 325 327 324 324 324 323 324 322 320 321 321 319 321 321 319 318 319 317 312 309 306
314 313 314 315 315 316 315 313 314 315 316 316 317 317 317 318 318 320 323 320 318 318 320 321 320 320 321 320 320 319 317 319 319 317 319 317 319 319 316 318 318 315 314 314 318 321 319 320 320 315 317 314 310 317 319 314 313 319 324 321 320 324 327 324 324 329 328 329 330 327 323 321 321 323 323 322 328 330 326 323 321 322 323 318 314 313 310 305
314 314 315 314 313 315 315 314 314 315 318 317 316 317 318 317 317 321 325 320 317 319 320 321 321 320 320 320 320 319 316 318 318 317 320 318 319 320 316 316 318 315 314 313 317 322 319 318 321 314 311 315 315 316 321 319 313 315 317 315 319 326 326 323 324 326 327 328 330 330 326 323 324 326 326 324 327 332 333 329 328 331 326 316 315 317 312 306
314 315 315 313 312 315 315 314 314 317 319 317 316 316 316 317 316 320 325 320 317 320 320 321 323 322 321 319 319 319 318 318 317 317 320 318 318 320 316 316 319 316 315 313 315 320 319 317 321 316 311 315 319 319 319 320 317 317 318 317 319 320 321 324 323 322 327 331 331 331 327 324 326 327 328 326 325 329 333 332 334 338 325 314 316 318 313 307
314 315 316 314 313 315 315 314 316 318 318 316 315 315 315 317 317 318 321 319 319 322 320 320 323 322 321 319 319 319 318 318 318 317 319 318 318 321 318 316 319 317 315 315 316 318 318 319 323 322 317 318 322 319 315 317 318 317 319 319 318 319 320 323 321 321 324 325 327 330 327 324 325 325 329 330 327 327 327 326 332 337 326 316 315 316 313 309
314 316 315 315 315 315 315 316 317 318 316 314 314 314 314 316 317 318 319 318 319 322 320 321 323 322 321 319 319 320 319 319 318 317 319 318 317 319 319 317 317 316 315 317 316 317 321 324 324 324 321 319 319 314 310 314 316 315 318 321 319 318 320 323 324 323 322 321 321 323 324 325 323 323 329 330 325 323 320 321 326 329 325 319 315 314 312 308
315 316 315 315 316 315 315 317 318 317 315 313 313 315 315 316 317 317 319 319 319 321 321 323 324 322 321 321 320 319 319 319 318 317 319 319 317 319 321 318 316 315 316 318 318 317 321 323 322 323 324 321 319 315 311 312 314 314 319 321 320 318 318 323 324 322 324 323 321 321 324 324 317 318 323 322 319 319 317 317 320 323 326 320 314 316 314 306
314 315 314 315 315 315 317 318 317 315 314 313 313 314 314 315 316 317 318 319 319 321 321 322 323 322 321 323 322 319 319 321 320 318 318 320 319 319 321 319 316 316 317 318 318 317 319 322 321 324 327 324 322 321 317 314 314 318 323 320 318 318 319 321 322 321 324 325 323 323 326 322 318 319 321 318 318 322 320 318 317 320 327 324 315 315 313 305
312 313 313 313 314 315 317 319 317 315 313 312 313 313 314 315 316 316 317 318 318 320 320 321 323 322 321 323 321 319 319 321 322 321 319 319 319 317 318 318 316 316 317 318 318 317 320 323 320 321 324 324 324 325 323 319 315 319 324 320 317 318 319 319 320 321 323 323 322 323 325 322 321 321 320 318 321 323 324 324 319 316 321 322 318 315 312 306
311 313 313 314 315 316 317 318 318 315 312 311 312 312 313 314 315 315 316 317 318 318 319 321 322 321 322 323 322 321 321 319 322 324 321 320 321 319 316 316 316 315 317 320 321 320 322 323 319 319 323 322 323 326 325 321 318 319 321 319 317 317 318 318 320 321 322 322 322 322 322 323 323 321 321 323 324 325 325 327 325 319 319 321 319 315 311 306
308 311 314 315 316 316 317 317 317 316 314 312 312 312 312 313 314 315 315 316 317 317 318 320 320 321 322 323 322 323 322 320 321 324 322 321 321 318 314 313 315 316 316 318 319 319 321 321 319 320 321 319 323 328 324 320 320 320 319 319 317 316 317 318 320 321 322 323 323 321 320 322 322 321 324 325 326 326 327 327 328 325 323 323 320 316 313 307
307 309 312 312 313 315 317 317 316 316 315 313 311 311 311 312 313 314 315 315 316 318 318 319 320 321 321 322 322 323 323 322 322 322 322 321 320 318 315 314 315 316 317 317 317 319 321 321 321 322 321 319 322 327 323 320 321 320 319 319 317 316 317 318 319 320 321 323 323 322 323 323 320 319 321 322 325 326 324 322 323 323 321 321 320 321 320 313
307 308 308 308 309 312 314 314 315 316 315 313 311 310 311 312 312 313 314 315 316 317 318 319 319 320 320 321 322 322 322 323 322 322 321 321 321 321 319 319 317 314 315 317 316 318 321 321 321 321 321 320 321 323 322 319 320 320 319 319 317 316 316 316 317 318 319 321 320 322 325 324 319 319 321 322 323 322 319 318 319 320 320 320 321 324 324 318
306 307 307 307 308 310 310 311 312 314 315 314 312 311 311 312 312 312 313 315 315 315 317 318 318 319 320 320 321 322 321 321 322 322 321 320 320 320 320 323 321 315 313 315 314 314 317 320 321 320 321 321 320 321 321 319 319 320 320 319 317 316 316 316 317 317 318 319 319 320 322 321 319 321 324 326 326 322 319 319 318 318 318 320 322 323 323 320
304 305 306 307 308 309 310 311 311 312 314 314 313 311 310 311 312 312 313 313 314 315 316 317 318 318 319 319 320 321 320 320 321 321 321 321 320 320 320 320 320 317 314 312 313 314 315 319 321 320 321 323 321 321 320 317 317 319 321 320 318 317 316 316 316 317 317 319 319 319 320 320 320 323 325 326 326 323 321 319 317 317 318 319 321 321 322 320
303 303 304 306 307 308 309 311 311 311 312 314 313 311 310 310 310 312 313 313 313 315 315 316 317 318 318 318 318 319 320 320 320 320 321 321 319 321 322 320 319 319 316 313 313 314 315 317 320 320 321 322 321 321 319 317 317 320 320 320 318 316 316 316 316 316 316 317 319 320 319 318 320 323 322 323 324 322 320 319 317 317 317 316 316 317 318 318
Wind_Speed
5 4 3 3 2 2 2 1 2 2 3 3 2 3 3 3 3 3 3 3 3 2 2 2 3 3 4 5 6 7 7 7 6 3 1 0 1 1 1 2 3 4 4 4 5 2 2 5 8 9 4 3 5 2 3 3 3 5 4 4 2 4 4 6 7 7 5 3 5 4 3 7 4 2 1 1 5 3 1 3 2 4 3 2 2 2 6 12
6 5 4 3 3 3 2 2 1 2 2 3 2 2 2 3 3 3 3 3 3 2 2 2 2 3 4 5 6 7 8 7 5 3 2 2 1 1 2 2 3 4 5 6 7 6 3 4 7 7 6 3 3 3 2 2 4 4 3 3 3 6 5 6 7 6 3 2 5 3 1 5 5 4 3 1 3 3 0 3 4 6 5 3 1 3 9 14
6 4 4 3 3 3 1 1 0 1 2 3 2 2 2 3 3 3 2 3 2 2 2 2 2 3 4 5 6 7 7 6 4 3 2 4 3 3 3 2 3 4 5 6 7 7 4 1 3 5 5 3 2 3 4 4 2 3 4 3 4 6 4 4 6 6 4 3 6 3 1 2 2 3 2 3 2 1 3 5 1 4 7 6 3 4 11 15
5 4 3 2 2 2 1 0 1 2 2 2 2 1 2 2 2 2 2 2 2 1 1 2 2 3 3 4 5 6 6 5 1 1 3 6 5 5 4 3 3 4 5 6 5 6 5 3 4 5 4 3 4 4 4 4 1 2 4 3 5 3 1 3 6 6 5 4 5 4 3 1 2 2 2 5 4 4 7 8 7 9 9 8 6 6 12 14
5 3 3 2 2 2 1 0 1 1 0 1 1 1 1 1 2 2 2 2 1 1 1 2 2 2 3 4 5 5 6 5 1 1 4 7 7 6 4 4 4 4 5 6 4 3 3 4 6 6 5 2 5 5 2 3 2 3 2 3 5 3 1 2 5 4 4 4 5 5 4 3 2 1 3 8 6 6 6 7 9 9 8 10 9 9 11 12
5 4 3 3 2 1 0 1 1 0 2 3 2 1 0 1 2 2 2 1 1 1 1 1 1 3 3 4 4 4 5 2 3 0 4 7 8 6 4 4 5 5 5 5 4 3 3 5 7 4 3 3 3 3 1 5 2 3 1 1 3 3 0 0 2 3 5 6 6 5 3 3 3 2 2 7 9 8 5 5 7 7 7 11 11 10 10 10
5 4 3 3 2 1 0 1 1 1 3 3 3 2 1 0 1 1 2 1 1 1 0 1 2 2 3 4 3 5 4 2 3 3 6 7 8 5 3 4 5 5 4 4 4 3 4 7 6 3 4 4 0 2 1 5 4 5 1 1 1 3 2 2 3 2 4 5 5 3 2 3 5 3 1 5 11 6 3 4 4 5 7 12 10 9 9 10
5 4 4 3 2 1 1 1 1 2 2 2 4 3 1 1 1 1 1 1 1 0 0 1 2 2 3 3 3 5 2 3 1 5 7 7 7 4 3 4 5 4 5 7 5 3 3 5 4 4 4 2 3 2 2 3 5 5 2 2 1 1 4 3 3 3 3 1 1 2 2 2 5 3 1 8 10 3 1 2 4 5 8 9 8 7 8 9
4 4 4 4 3 2 2 2 1 1 1 2 4 4 2 1 0 1 2 2 1 1 0 1 2 3 2 3 6 3 3 3 1 6 8 7 6 4 1 4 5 4 7 8 5 4 2 2 3 4 4 2 3 2 3 2 1 0 2 1 1 2 5 3 1 3 3 1 2 2 3 4 2 1 4 9 7 2 3 5 4 6 7 6 6 7 8 8
6 5 4 4 3 3 3 2 2 2 2 2 4 5 3 1 1 0 2 2 2 2 1 2 1 3 3 3 7 1 3 3 1 7 8 8 6 4 1 4 5 5 6 7 7 6 3 4 4 4 6 3 3 2 3 2 1 1 3 2 3 3 4 2 0 3 3 2 1 3 5 4 4 1 5 6 2 4 5 5 2 5 7 6 5 5 7 8
7 6 5 4 4 5 3 2 2 2 3 3 4 5 4 3 2 1 1 2 3 2 2 2 3 3 3 5 6 3 2 4 1 6 8 7 6 3 1 4 4 5 6 7 7 6 5 6 7 5 2 1 2 3 3 1 2 2 2 1 3 6 4 1 1 3 1 1 4 5 4 4 4 1 7 3 2 4 5 5 3 5 6 5 5 4 5 8
7 6 6 4 4 5 3 2 3 3 4 4 4 6 5 4 3 2 0 2 3 2 3 3 3 4 3 4 3 5 2 3 0 5 7 7 6 4 3 3 4 5 4 5 5 5 5 5 7 5 0 2 2 2 1 2 2 1 3 0 5 8 5 3 1 2 1 2 4 5 2 4 3 8 8 1 2 3 4 6 4 5 5 4 5 4 5 8
8 7 6 5 5 5 3 3 2 3 4 5 5 5 5 5 4 2 1 3 3 3 3 4 3 4 4 1 3 4 4 1 1 5 7 6 7 5 4 4 5 6 5 7 6 5 5 3 6 6 2 5 2 1 3 4 3 1 3 2 4 7 6 4 1 1 3 3 3 4 3 6 8 12 7 1 5 5 4 6 5 5 5 4 5 4 5 8
8 8 7 6 6 5 4 3 3 3 4 4 5 5 5 5 4 2 2 3 3 3 4 4 4 4 4 2 3 2 5 4 3 6 7 8 8 7 5 5 5 7 7 8 7 7 6 5 8 7 3 4 2 1 5 6 4 1 1 2 3 2 5 6 1 3 5 2 2 4 3 7 9 11 6 2 6 7 7 8 6 6 6 5 5 5 6 8
8 7 6 5 5 5 5 4 4 4 3 4 4 4 4 4 4 2 3 3 4 4 4 5 4 4 3 3 2 2 5 4 5 8 8 9 9 6 5 5 6 7 7 8 8 8 7 6 7 6 1 2 3 4 4 4 4 3 1 3 3 1 5 9 2 5 4 1 2 4 4 7 9 9 6 2 5 6 8 7 6 7 7 6 6 6 6 7
9 8 6 4 4 4 4 4 4 4 3 3 3 2 3 3 2 1 4 4 6 6 5 5 4 5 2 2 1 2 4 5 6 9 10 10 8 6 7 7 6 7 7 7 7 6 8 7 5 3 1 2 5 5 4 4 4 4 1 2 2 2 3 6 3 2 1 1 0 2 3 5 5 5 5 0 5 5 6 7 8 8 8 7 6 6 6 6
11 9 7 5 4 3 3 4 4 3 2 2 1 1 2 3 2 3 6 8 8 7 6 5 5 5 1 1 1 4 3 5 7 10 11 9 7 8 10 7 6 7 7 6 5 4 7 6 2 1 3 3 3 5 3 2 4 4 2 2 3 3 2 3 4 3 1 2 3 3 4 7 7 6 3 2 6 6 7 10 9 8 7 7 6 7 7 7
12 10 8 6 5 4 3 4 5 2 2 1 2 4 6 6 5 6 9 11 10 8 6 4 4 3 2 3 2 2 2 5 8 10 11 9 8 10 9 6 6 7 6 5 4 4 4 4 2 1 3 3 2 5 3 4 4 3 2 2 2 2 2 4 4 2 2 1 3 4 5 11 13 11 7 5 6 7 9 9 8 8 8 7 7 8 8 9
12 11 10 7 6 5 3 4 4 1 2 1 4 8 8 7 6 7 7 6 5 4 1 3 3 4 4 4 2 3 6 8 9 9 10 10 10 10 10 8 6 6 5 1 2 3 2 3 4 2 1 2 4 6 8 7 6 6 5 4 4 3 3 5 6 5 3 2 4 7 8 10 12 13 11 6 6 7 9 8 7 8 8 7 8 9 9 11
12 12 11 9 7 6 4 5 4 2 3 2 6 7 5 4 4 2 1 1 3 4 2 3 3 3 0 2 2 8 9 7 5 6 9 11 12 11 7 6 6 6 4 3 1 2 3 3 2 5 7 8 9 8 6 5 6 5 5 3 3 3 4 5 4 6 2 3 6 8 8 10 10 13 13 4 5 6 9 9 10 10 9 9 10 11 12 12
13 12 10 9 8 6 6 6 4 4 4 4 6 4 2 3 2 1 3 4 7 6 2 2 1 0 1 0 5 8 6 3 3 3 10 11 12 10 1 3 5 2 1 3 3 2 4 4 7 10 9 7 6 6 5 5 5 5 4 2 2 3 6 7 4 4 1 3 6 5 6 11 11 13 13 4 3 8 11 11 13 13 12 10 11 14 13 8
13 13 11 10 9 8 7 6 4 6 6 4 4 2 1 2 3 1 2 1 8 9 8 3 3 4 3 1 5 4 3 3 2 2 9 9 7 6 1 4 5 3 1 3 3 2 2 3 12 10 4 5 4 5 6 5 4 3 3 1 3 3 4 7 4 4 1 3 4 5 6 10 10 11 12 10 9 10 10 12 14 14 12 10 12 14 11 8
14 14 13 11 10 9 8 6 5 8 8 6 5 4 2 2 4 3 2 1 5 5 5 6 4 4 3 1 5 5 1 3 4 5 9 9 3 4 5 5 5 4 3 5 5 4 2 6 11 6 8 6 4 4 7 5 2 3 3 2 3 3 2 4 5 4 1 2 2 4 7 8 8 9 12 14 11 8 10 13 14 12 11 13 13 11 10 11
15 15 14 13 11 10 7 5 7 9 11 9 10 9 5 6 5 3 1 1 4 4 3 6 5 5 6 3 7 9 2 3 5 5 11 11 5 3 5 5 5 5 4 8 8 6 6 6 2 5 8 7 5 4 7 5 2 4 5 6 5 4 6 6 4 5 3 2 3 4 7 7 7 9 11 8 4 6 10 11 13 13 12 13 11 9 10 11
17 16 16 15 12 10 8 6 9 12 12 9 13 14 9 7 6 4 2 2 3 5 3 4 3 6 10 7 9 9 2 2 4 7 14 13 8 5 3 3 4 5 6 6 6 5 8 5 3 6 5 6 6 4 6 7 4 5 5 10 10 8 7 5 3 5 4 4 4 4 5 7 4 6 10 5 4 7 7 7 12 15 12 10 10 11 9 8
20 17 17 17 14 14 11 6 11 14 11 9 13 14 12 8 6 5 4 3 4 4 1 3 3 7 12 8 8 6 2 4 4 7 14 13 8 5 3 2 2 4 6 5 3 3 4 2 4 6 5 6 6 3 6 7 5 3 5 8 10 7 4 4 0 2 1 4 3 3 1 7 5 5 9 6 6 9 8 8 12 13 11 9 9 10 8 7
22 20 19 19 17 19 12 4 11 15 7 8 12 15 14 10 7 3 3 3 4 3 4 2 1 6 9 8 11 8 2 5 2 6 9 10 6 3 3 5 2 2 4 4 1 3 4 3 2 5 5 5 5 4 6 8 7 4 4 5 7 6 5 5 4 3 3 3 4 3 3 5 8 6 6 5 7 9 10 12 14 13 11 9 8 8 8 9
25 22 21 21 21 24 15 5 12 16 5 2 10 19 17 12 8 3 4 0 4 2 5 1 1 4 3 6 11 7 2 2 5 2 2 6 4 4 3 7 6 6 5 6 5 3 4 7 7 7 5 4 6 5 7 11 6 5 2 5 6 6 5 4 5 3 1 3 5 3 4 3 9 5 2 0 5 7 10 14 16 14 10 7 8 9 9 9
29 24 23 23 23 24 18 7 10 16 9 4 15 23 19 13 7 4 4 3 2 1 2 1 2 1 3 4 6 3 2 2 2 2 2 4 2 4 3 7 6 7 4 4 6 2 1 5 8 8 6 6 4 2 6 11 5 4 5 7 6 5 5 5 4 3 3 2 6 6 6 3 8 4 2 2 3 7 10 12 13 11 7 6 8 8 7 6
31 28 26 25 25 27 22 13 11 14 12 8 17 24 19 9 4 4 2 4 1 0 0 1 1 1 6 9 3 1 3 2 1 2 3 1 2 6 2 3 6 5 1 4 4 3 1 1 2 4 4 5 4 3 1 5 5 5 6 6 7 5 5 4 2 4 2 5 6 7 10 6 6 3 4 3 5 7 9 8 10 9 6 6 7 6 5 4
33 31 30 30 30 30 22 15 17 17 12 11 19 22 13 3 3 4 6 2 1 1 2 1 1 4 11 12 5 2 3 1 2 6 4 2 2 3 1 2 4 4 1 5 5 3 2 1 1 2 2 4 7 5 4 3 4 5 5 5 4 4 4 4 4 4 1 6 3 3 5 7 8 6 4 6 6 6 8 7 10 10 8 7 6 5 4 4
35 35 35 34 33 32 23 17 22 20 12 15 20 14 6 2 0 5 5 1 0 4 5 3 3 6 9 7 5 6 5 2 3 7 6 4 5 6 6 6 6 3 2 7 4 3 2 4 3 1 1 4 6 5 4 4 3 4 5 6 4 2 3 2 3 1 3 7 3 1 1 4 9 8 7 9 10 9 9 9 10 10 10 8 5 4 3 4
26 35 38 36 34 35 29 22 23 21 16 19 15 4 3 5 6 9 8 3 2 2 3 4 3 7 10 7 4 5 4 2 5 4 3 4 5 7 6 5 6 4 2 6 3 1 3 5 1 2 2 3 8 6 3 1 2 5 5 6 4 2 1 2 3 2 4 6 3 1 1 3 5 5 10 15 14 11 8 9 10 9 11 9 4 3 4 5
13 24 36 40 36 36 32 24 23 24 22 18 9 3 5 7 7 11 13 9 3 2 2 4 6 6 8 5 4 6 4 3 6 5 3 5 5 7 6 7 7 2 3 4 3 5 5 6 5 7 3 6 11 9 6 6 5 5 4 5 5 5 5 4 4 4 5 4 3 2 1 3 3 3 8 11 9 7 7 8 7 8 9 6 4 3 5 5
11 14 25 36 35 31 30 25 25 31 27 14 5 5 9 8 6 9 12 9 3 3 3 3 7 7 5 2 2 6 5 2 5 5 4 6 6 8 7 8 10 6 4 4 2 3 4 7 6 3 1 9 11 5 5 8 3 3 3 4 3 5 5 2 3 5 2 3 3 2 4 5 4 6 9 7 7 7 7 7 6 10 9 4 5 6 5 5
14 12 15 27 32 31 32 26 29 35 26 12 7 8 9 10 8 7 7 6 5 5 6 3 4 5 6 2 2 6 2 2 6 5 3 4 4 7 7 8 11 12 9 7 3 2 3 5 5 3 2 4 6 2 4 3 3 2 3 4 4 4 6 3 2 1 3 2 4 2 5 5 4 8 8 5 9 10 7 7 8 10 7 4 8 6 5 6
12 9 8 18 27 33 35 31 34 33 16 8 11 11 9 10 8 5 3 4 6 9 9 4 3 5 6 4 4 7 3 2 5 5 4 3 3 7 9 5 7 15 14 7 2 3 4 4 4 1 1 3 1 3 3 3 3 5 4 6 3 2 3 3 2 3 3 3 5 1 5 5 2 6 4 2 6 10 10 11 10 8 6 6 8 6 5 7
10 6 7 16 25 32 35 36 38 27 8 6 11 9 8 10 8 4 2 3 7 9 9 7 6 6 7 7 6 8 7 4 6 6 4 4 5 8 11 5 5 15 16 8 2 3 3 3 5 1 3 3 3 3 2 4 2 5 4 5 4 2 1 2 2 2 1 4 5 3 5 5 6 6 2 1 7 9 10 10 9 9 8 7 7 6 6 6
7 4 5 14 23 29 36 40 33 16 5 8 10 7 6 9 8 3 2 4 6 8 10 9 6 4 6 8 6 7 8 7 9 7 5 5 5 6 12 10 6 11 14 11 7 3 3 3 4 2 1 1 2 2 5 2 1 3 1 2 2 2 4 3 3 3 3 3 3 4 5 5 7 7 6 9 10 9 8 7 8 11 9 5 5 6 6 6
5 3 3 8 16 28 39 35 20 8 6 9 9 7 6 7 7 5 6 5 4 5 8 9 7 5 5 7 5 5 8 7 9 8 5 7 6 5 9 10 5 5 10 12 9 2 3 3 4 2 3 1 3 4 8 9 6 3 3 4 3 1 2 1 1 2 4 3 2 2 7 9 5 4 8 10 9 10 9 7 8 8 6 5 6 6 6 7
4 4 3 10 18 29 34 21 8 7 7 7 9 9 7 5 4 8 9 5 2 2 3 5 7 7 6 7 5 5 6 6 7 7 5 7 8 5 6 10 9 8 7 8 9 5 3 3 4 2 1 4 5 4 5 7 7 7 7 8 9 6 4 3 2 2 3 3 4 4 7 11 5 4 7 7 7 9 8 7 7 7 6 5 5 6 7 7
3 4 4 15 26 30 23 8 5 7 6 7 8 6 6 4 2 6 7 3 2 2 1 2 6 7 6 7 7 6 7 5 7 7 5 8 11 8 6 9 13 14 11 8 9 7 4 3 3 3 4 6 6 3 2 3 2 2 3 5 7 6 6 6 6 4 3 2 2 4 4 10 3 4 5 5 5 5 4 5 6 8 7 5 5 6 7 6
4 4 4 20 34 29 13 6 7 6 5 5 4 2 4 3 3 5 6 6 4 2 3 2 3 6 6 5 6 8 8 7 9 11 8 8 11 8 7 10 12 14 10 5 4 3 3 3 4 3 2 3 4 4 2 1 2 1 2 2 6 8 8 6 4 4 4 4 3 4 5 9 2 1 3 3 3 4 3 5 6 8 8 5 6 6 6 6
2 3 1 17 36 28 8 5 8 6 7 6 5 6 6 3 5 8 8 10 8 4 5 5 3 5 5 3 6 9 11 8 8 12 10 7 7 3 7 12 13 12 9 5 5 6 5 5 5 3 1 4 4 3 2 1 2 3 4 4 8 11 7 3 1 3 3 9 10 6 9 10 2 3 3 2 3 4 6 6 6 8 8 5 5 5 5 5
2 2 2 10 24 19 6 6 7 5 7 8 8 10 10 5 5 8 9 9 7 5 5 4 3 3 3 3 4 7 11 10 7 9 9 6 3 1 4 11 13 12 7 3 6 8 6 6 7 7 7 9 8 6 5 4 3 2 4 7 9 11 12 7 3 3 6 9 10 9 13 8 2 4 5 3 3 5 7 6 6 8 8 6 5 5 5 5
3 3 2 4 8 9 6 6 7 6 6 7 6 7 11 10 5 5 7 7 7 8 6 2 2 4 3 4 5 6 10 13 8 4 5 7 4 1 2 7 11 11 4 5 7 7 3 4 10 14 14 15 13 6 5 10 8 7 10 12 13 14 16 11 6 7 9 4 6 15 19 11 6 5 5 6 5 6 6 6 6 7 7 7 6 4 4 5
3 3 3 3 3 6 7 6 8 8 7 8 5 4 10 14 8 3 6 8 7 9 8 3 3 6 6 7 9 8 8 10 8 4 5 7 3 1 1 3 6 7 4 5 5 5 3 3 11 15 17 18 14 7 8 13 14 17 17 16 17 17 16 14 14 14 9 6 10 18 13 12 17 12 8 8 6 5 7 8 8 7 6 6 3 3 4 5
3 2 2 1 1 4 5 6 10 11 11 11 6 3 7 12 10 6 5 8 7 7 7 4 7 12 13 12 11 8 7 7 8 9 9 6 3 1 1 1 4 5 6 4 4 4 4 6 10 13 16 19 14 6 9 12 13 15 18 19 20 19 19 20 23 20 11 9 18 14 10 13 23 16 11 9 7 8 11 9 6 7 7 5 3 4 5 6
3 2 2 1 1 3 3 1 5 9 12 12 7 6 8 9 11 9 5 4 5 6 8 9 13 17 17 15 11 9 9 8 9 11 11 7 5 4 3 2 3 4 6 7 4 2 4 7 9 10 12 18 15 7 9 11 8 8 13 17 19 21 24 26 26 21 14 15 21 11 7 16 20 11 9 9 9 11 10 5 5 8 8 6 5 6 7 7
3 1 1 1 1 3 4 3 2 5 7 9 7 8 9 11 13 12 8 7 7 7 9 15 18 17 16 16 13 12 14 14 14 13 10 9 7 5 5 5 3 3 5 6 2 1 4 6 6 5 5 13 14 8 8 9 8 8 9 12 17 21 24 24 21 17 13 16 20 13 12 18 12 6 8 8 8 9 8 7 8 8 8 7 7 8 9 9
6 2 1 0 2 3 3 3 3 4 5 6 6 5 7 11 15 12 8 9 10 8 9 15 19 13 10 12 13 15 17 16 14 9 6 10 10 7 7 6 5 6 6 4 3 2 4 3 1 4 5 13 12 9 8 5 3 5 8 14 20 20 18 17 16 15 15 17 18 14 15 17 6 7 7 7 8 9 11 12 11 8 8 9 9 10 10 10
8 2 2 1 3 4 3 2 4 5 4 5 6 6 7 10 13 11 5 5 9 10 8 11 14 9 7 10 14 15 14 10 7 3 3 6 6 3 4 5 7 8 7 5 3 3 6 5 3 5 7 12 9 8 8 4 1 6 13 21 23 18 14 13 14 17 18 17 15 13 18 19 8 5 6 7 8 10 12 12 11 10 9 9 9 11 11 11
Wind_Direction
191 194 192 177 176 216 203 199 194 191 209 215 224 238 253 260 266 275 271 274 274 285 303 297 316 321 325 332 335 344 343 340 340 340 4 38 318 322 50 49 33 18 22 12 17 49 25 16 360 12 63 62 12 339 13 24 54 56 79 94 145 179 195 187 177 191 169 185 216 229 186 138 161 210 164 48 33 45 18 354 326 319 308 249 255 207 164 161
197 189 182 181 192 203 201 219 196 192 213 216 225 236 251 253 261 275 276 283 284 294 310 307 323 323 329 335 340 347 343 342 345 323 276 212 240 165 122 63 42 28 34 39 40 53 59 355 344 21 52 47 352 339 27 13 55 84 109 100 199 195 200 195 174 186 160 132 183 202 174 152 176 166 134 191 317 7 99 292 346 336 296 266 245 177 167 164
193 187 189 190 197 194 189 226 185 215 232 221 220 231 237 241 255 267 280 286 288 305 313 318 322 328 335 336 346 351 349 360 358 322 224 189 194 160 127 75 51 40 42 46 41 45 68 37 4 47 49 52 356 351 38 8 26 129 110 97 231 211 219 216 179 193 206 146 149 179 182 161 212 164 149 181 183 337 217 226 246 272 251 230 230 167 162 168
192 192 197 197 198 192 187 216 212 216 239 238 230 245 225 225 241 250 271 271 282 303 305 325 326 336 340 340 354 353 8 36 359 311 161 176 174 155 126 82 51 40 40 43 43 45 64 84 63 60 62 45 339 12 48 347 355 110 103 154 221 186 190 216 191 205 205 160 142 151 127 143 241 175 159 147 145 275 247 223 202 214 217 202 216 184 169 174
194 200 201 203 196 195 201 305 301 209 16 335 307 279 204 213 225 234 249 248 264 280 304 328 336 350 349 354 1 352 29 57 280 303 141 167 160 148 118 70 42 35 31 37 41 46 58 67 61 48 53 41 346 26 32 317 65 71 67 179 199 152 120 205 187 184 157 125 112 122 143 175 175 140 160 155 183 239 231 230 214 212 200 185 189 181 175 177
198 205 206 206 197 209 205 25 307 13 33 5 355 340 155 215 210 214 230 227 244 246 298 318 359 3 3 10 5 14 66 90 280 154 148 156 149 145 112 49 30 24 17 36 30 36 51 43 56 50 48 51 3 46 359 307 47 94 5 247 210 190 297 348 146 166 130 117 138 155 176 135 110 272 198 173 216 224 220 250 234 234 207 176 166 166 175 181
202 202 208 209 206 212 6 342 282 62 39 6 2 8 44 63 178 200 220 213 219 222 290 320 14 17 24 24 20 43 77 251 290 168 166 150 149 146 101 32 25 15 12 45 32 65 75 46 70 120 82 68 214 88 348 311 33 88 103 316 199 191 251 334 56 127 118 132 188 179 124 128 168 224 56 210 238 237 260 278 229 216 177 160 155 165 181 184
210 199 202 210 228 246 297 326 2 75 50 13 6 3 17 33 130 172 198 209 206 171 311 357 36 49 44 49 74 39 11 274 294 175 174 157 157 147 93 30 32 29 51 54 42 127 103 56 113 152 84 87 171 101 341 336 30 62 127 240 143 185 272 313 53 83 87 157 196 110 144 231 198 188 312 243 248 260 326 48 108 132 135 150 161 171 180 182
219 219 208 208 224 267 296 325 24 53 32 26 6 355 352 13 160 189 183 187 174 183 28 63 42 60 71 83 86 55 276 285 306 180 175 168 164 154 99 38 41 47 66 56 46 106 112 123 184 176 140 155 133 70 344 43 27 128 142 205 63 357 319 336 37 49 33 312 72 123 256 293 274 244 272 256 242 187 101 79 96 124 137 162 170 178 182 182
213 225 232 242 256 288 293 303 329 342 347 343 355 352 344 1 20 202 174 176 175 181 113 105 81 77 106 98 85 99 268 343 297 185 174 175 171 170 104 38 39 55 69 55 50 63 85 168 175 146 137 122 101 62 352 68 119 148 110 100 70 345 321 27 340 350 13 307 152 187 254 292 332 326 255 269 199 146 106 95 121 142 162 180 179 193 191 191
214 215 231 259 284 298 299 300 311 331 337 337 349 344 340 358 13 8 183 176 171 169 146 131 115 106 107 93 105 191 270 16 253 185 175 178 173 173 79 35 41 71 75 60 59 54 75 148 142 121 124 96 102 37 355 110 109 90 99 114 359 344 316 58 269 296 350 267 178 169 248 297 1 255 234 265 136 156 128 145 176 169 189 196 195 206 198 206
218 215 220 234 261 284 288 297 307 323 335 344 339 327 332 343 349 352 187 168 171 172 156 137 132 140 99 71 140 212 249 23 268 184 178 178 168 154 83 47 50 70 85 79 71 55 71 135 117 88 34 134 122 38 87 114 81 50 74 134 312 357 343 268 262 273 169 203 178 148 286 281 224 226 239 288 138 138 134 174 202 201 216 223 219 224 214 220
211 215 219 224 239 259 260 275 299 322 331 337 324 311 318 325 334 346 154 168 173 166 155 144 139 134 103 56 224 223 237 288 248 187 176 174 162 142 95 77 69 70 89 97 88 61 68 131 108 97 117 107 118 182 101 51 41 322 43 67 317 1 336 284 33 58 158 174 171 144 277 266 239 242 253 253 154 134 160 207 215 219 232 235 230 230 230 228
215 214 217 226 237 247 255 263 268 297 324 326 312 307 317 325 329 335 136 160 170 157 149 138 138 120 100 243 246 251 246 242 218 191 180 177 161 134 107 96 87 81 84 89 84 64 71 108 99 95 94 85 122 112 42 13 22 7 10 41 9 8 286 292 359 130 152 179 123 132 244 268 263 263 273 233 172 160 199 221 216 225 232 232 232 228 235 231
235 229 232 250 259 258 259 263 259 270 302 315 307 315 331 332 328 350 125 148 148 142 136 127 132 110 69 286 271 303 256 231 205 194 186 181 166 141 121 114 101 90 81 81 83 70 71 95 84 73 32 18 67 72 27 354 15 34 320 312 351 164 269 304 294 159 154 342 68 132 227 275 272 273 296 248 182 183 213 226 222 229 230 228 232 225 235 241
241 243 247 262 279 279 269 273 271 258 266 299 305 330 348 349 354 83 125 128 126 126 120 114 112 104 87 281 304 305 254 215 198 189 184 182 178 156 130 118 96 88 86 81 86 71 50 58 65 63 113 56 69 82 45 10 347 360 56 251 271 171 280 316 312 216 210 47 16 199 231 280 275 274 322 99 180 194 228 243 234 231 232 227 230 227 230 238
235 241 243 244 259 277 282 285 297 281 245 262 268 67 52 59 65 103 117 114 113 106 100 114 109 98 96 276 275 272 231 185 183 178 176 171 170 158 134 111 89 90 87 73 71 49 27 38 69 3 50 60 85 93 56 340 291 319 20 240 244 196 215 300 313 295 63 114 218 231 234 255 264 271 304 183 182 193 224 243 239 233 234 229 229 231 230 227
233 238 239 237 242 262 284 286 312 331 190 204 109 99 88 83 87 114 123 115 101 80 75 95 92 88 265 251 212 222 141 151 163 161 163 152 148 150 131 107 102 88 62 42 38 35 18 24 63 43 23 17 63 100 138 227 214 198 188 198 253 240 215 256 284 258 138 134 229 218 242 257 268 277 265 212 183 194 224 241 249 244 237 232 231 232 230 227
231 237 238 238 238 250 272 282 309 311 175 134 117 112 92 79 84 112 124 117 110 101 145 201 145 140 221 238 179 109 106 128 146 153 154 144 137 127 108 94 93 81 72 63 352 21 52 48 60 80 245 233 186 168 190 201 164 160 172 154 180 227 254 234 250 260 194 166 239 226 235 251 262 272 267 237 179 204 241 257 261 253 240 233 231 234 231 228
230 233 236 237 233 242 257 273 288 220 195 148 133 119 97 80 61 46 306 256 199 154 151 234 204 146 116 303 114 115 111 110 128 157 153 150 139 116 82 54 56 56 92 154 214 15 85 105 153 210 216 210 202 192 176 150 124 117 126 134 185 212 270 254 249 283 224 170 248 233 234 253 256 264 268 250 162 218 249 254 254 249 240 233 230 234 230 230
229 228 234 232 229 237 240 258 262 199 195 173 149 122 137 150 103 256 249 268 252 227 227 297 345 317 320 244 159 138 119 75 45 144 156 157 146 133 54 33 82 60 269 164 143 39 74 131 222 228 214 203 194 169 131 114 98 83 125 176 263 220 253 256 241 295 281 178 266 266 251 257 253 259 270 269 182 229 234 236 249 245 238 234 231 237 231 224
227 226 229 225 226 230 230 249 240 194 186 179 173 143 186 165 107 119 158 269 269 241 217 225 357 295 268 211 192 162 71 80 65 199 169 153 149 167 170 77 127 176 226 119 107 43 63 217 240 230 157 107 101 130 133 126 111 91 116 158 268 249 271 279 283 330 8 188 271 301 276 263 257 259 266 258 237 239 234 229 242 244 240 236 231 236 230 213
226 223 223 222 222 217 221 235 206 187 186 185 198 186 143 113 95 66 102 84 294 262 201 198 221 244 239 274 208 176 98 154 171 227 187 151 136 179 139 120 148 140 131 162 157 147 170 249 248 200 132 118 85 99 121 115 131 157 150 175 243 244 263 279 297 338 18 197 288 307 288 270 258 260 259 253 245 250 252 241 245 247 239 240 238 233 223 214
227 221 219 217 215 209 210 207 186 194 198 201 218 201 138 111 111 71 62 44 299 282 231 202 197 192 193 204 184 171 179 193 170 200 187 158 126 151 154 149 141 129 180 190 172 179 217 253 251 131 148 154 122 112 135 143 236 238 199 198 221 224 217 234 291 328 334 359 16 340 301 273 237 242 250 263 290 270 257 252 256 255 241 243 252 243 221 213
225 221 216 209 209 204 191 181 193 203 197 206 225 204 153 126 123 90 75 28 294 291 300 211 193 199 192 167 164 166 139 243 217 192 181 165 143 141 166 145 130 176 203 178 165 221 245 243 112 115 151 151 136 158 173 168 208 274 231 206 215 221 226 250 343 5 353 332 349 15 312 281 247 239 254 286 330 273 259 256 256 258 251 241 246 244 225 211
224 221 212 205 205 193 180 192 207 197 189 218 224 194 166 148 126 111 92 42 287 272 258 181 177 190 186 158 150 139 82 261 245 161 167 172 158 122 142 149 77 196 190 152 163 234 241 220 117 126 146 153 157 202 216 180 164 273 251 207 212 210 216 246 211 60 287 264 299 46 358 282 277 236 248 253 258 265 272 270 260 260 258 238 235 240 223 208
223 220 209 201 200 188 178 195 194 176 175 241 218 179 171 159 133 128 89 31 281 206 142 200 198 165 174 164 151 135 186 239 117 130 163 174 177 72 128 172 109 185 167 121 225 251 171 164 119 123 123 145 173 221 220 172 148 240 250 167 175 182 198 208 167 185 238 264 314 33 110 277 279 251 244 223 234 272 281 272 266 260 256 245 238 237 220 210
222 217 207 200 197 193 189 162 171 175 177 267 183 170 165 157 147 113 96 107 274 140 129 232 154 133 132 155 156 139 223 203 118 181 183 151 178 48 124 192 170 178 172 145 208 263 148 170 183 161 142 173 198 220 190 157 154 249 218 123 135 154 165 140 132 182 307 3 304 292 134 254 275 264 326 40 217 257 263 257 259 260 261 256 244 237 222 214
222 213 205 200 197 198 201 188 174 189 198 134 154 164 158 155 157 76 84 192 254 87 117 121 121 105 70 137 167 126 41 39 120 235 32 124 168 51 151 196 150 160 196 192 210 261 118 193 190 158 159 199 206 250 183 162 179 212 133 97 81 81 82 87 113 128 52 333 249 221 167 228 275 235 108 58 203 229 242 248 256 262 270 260 249 246 232 218
221 212 204 196 194 196 199 211 210 198 199 167 155 158 150 146 138 97 162 222 219 116 80 126 167 171 137 146 183 24 88 40 63 99 50 103 33 32 128 152 91 125 235 305 261 246 307 275 197 154 171 186 137 65 161 153 151 142 110 72 53 37 41 54 53 85 63 279 248 207 184 188 273 260 164 199 209 208 222 245 263 271 280 264 255 257 237 211
223 214 203 194 195 193 188 210 216 198 200 187 158 151 142 103 72 156 201 239 23 160 135 166 182 139 153 159 174 187 131 58 155 147 139 166 86 50 110 117 77 81 359 290 277 299 329 320 239 215 161 128 99 67 21 46 102 109 91 83 70 354 10 27 355 48 163 259 267 247 201 188 240 260 228 245 259 230 212 230 255 265 274 265 262 269 230 187
225 215 205 198 197 193 190 209 206 191 194 179 158 147 141 117 185 219 221 68 129 205 164 169 188 160 163 164 172 173 145 97 178 166 155 155 168 182 192 187 163 121 247 235 247 345 278 234 246 302 186 138 112 83 31 11 28 81 99 109 101 332 347 347 308 63 228 255 272 333 264 219 244 252 250 257 263 246 220 223 241 255 266 264 267 265 216 171
226 218 207 201 200 197 199 208 197 182 180 172 157 111 104 162 199 215 214 195 203 216 136 113 124 153 156 159 184 168 134 161 180 172 155 142 174 208 228 225 188 162 190 195 188 231 271 294 279 158 259 184 155 157 164 206 189 158 146 141 141 151 183 267 272 271 267 270 285 331 204 250 270 263 241 239 244 243 229 229 236 247 260 270 287 245 197 182
237 222 210 205 204 202 200 200 188 174 168 165 151 93 143 182 203 202 212 219 209 40 60 106 110 135 158 169 195 166 148 217 177 152 155 147 169 214 230 238 216 166 95 139 169 182 217 281 211 176 210 187 183 193 167 138 161 186 159 140 159 164 170 213 222 230 262 286 296 295 216 206 215 263 246 239 256 269 252 250 256 259 258 270 290 238 193 194
257 239 219 209 205 202 197 192 182 169 160 152 147 163 178 194 202 204 214 212 181 55 40 93 108 131 190 276 276 183 163 214 177 144 162 173 190 205 198 209 203 168 133 175 212 160 197 263 243 224 235 171 183 202 120 109 144 218 127 115 191 187 159 183 206 181 189 313 295 242 224 216 212 267 267 258 278 278 267 278 276 264 265 280 274 242 197 200
252 259 237 211 204 201 196 188 178 171 162 148 163 188 200 205 198 201 204 180 164 132 108 89 86 132 201 243 270 217 183 103 156 154 194 199 219 211 199 211 197 184 181 182 189 143 166 273 282 342 354 174 187 194 118 138 186 163 139 175 212 174 127 120 251 60 74 275 271 209 246 288 315 280 269 251 259 265 277 282 258 255 268 280 268 247 206 211
235 248 242 215 208 202 196 187 176 174 173 164 180 193 205 215 207 188 183 145 139 138 135 167 183 162 188 194 204 208 193 98 157 178 193 186 245 215 202 229 195 192 200 182 184 200 168 257 296 74 199 264 284 123 74 21 126 126 181 202 170 102 88 107 222 354 44 254 273 241 250 285 299 275 313 43 249 257 261 259 258 263 256 248 260 253 225 223
220 214 239 229 215 202 195 185 175 174 187 191 199 211 207 216 215 178 161 123 129 152 171 199 197 171 180 190 197 188 177 173 177 190 186 180 244 210 184 207 203 198 203 179 199 245 160 232 299 61 192 299 11 123 90 354 73 132 185 186 128 144 205 114 164 218 195 244 282 300 280 267 213 230 291 211 224 238 247 252 265 268 249 243 258 249 234 227
218 193 254 230 217 207 195 184 175 174 193 190 204 225 212 220 226 201 179 167 156 173 193 204 193 172 185 182 167 167 182 187 172 180 189 186 235 212 177 189 205 198 194 176 190 227 133 204 269 330 255 329 25 163 184 205 40 53 98 147 104 132 174 164 154 171 183 230 283 316 311 270 218 198 199 214 216 213 228 244 250 253 250 249 246 233 230 222
217 214 257 192 203 206 194 184 178 186 199 194 203 209 203 218 226 230 228 208 191 192 203 209 184 162 186 181 159 170 191 192 174 183 203 191 218 241 191 183 170 169 177 180 193 175 112 208 239 322 333 186 192 213 194 183 169 151 157 171 182 104 111 165 154 127 139 167 212 278 285 267 239 182 189 207 212 204 210 226 238 246 248 239 231 224 223 219
206 243 227 165 184 191 184 181 189 192 193 205 215 215 213 209 196 216 226 225 264 233 196 210 198 181 176 176 188 189 179 184 180 189 221 205 208 236 205 175 154 137 143 174 202 196 167 195 190 184 229 207 223 245 212 196 187 181 187 190 187 166 138 164 234 203 140 181 189 180 263 267 238 182 195 197 206 207 199 211 246 265 260 245 235 222 219 216
222 257 179 166 177 175 171 188 208 187 198 208 211 208 199 202 192 205 209 202 270 289 306 239 212 199 182 179 191 176 160 176 186 190 224 218 211 222 210 179 159 151 148 169 203 198 147 121 161 197 214 218 239 271 229 209 183 152 201 200 171 161 166 176 211 214 159 227 192 120 266 271 235 180 204 198 218 231 204 202 245 275 273 255 238 224 223 224
234 256 151 166 174 168 165 217 197 191 225 220 223 202 175 204 208 190 194 195 199 204 215 243 220 209 207 183 171 167 172 187 192 197 215 223 223 220 185 170 157 153 157 167 195 179 109 133 195 228 304 309 310 336 5 70 107 123 249 184 164 188 194 180 194 183 159 209 183 121 255 262 254 217 235 226 251 272 248 219 233 266 275 254 233 227 218 216
240 264 186 177 178 170 169 221 195 204 225 221 233 221 214 236 203 194 201 201 199 189 201 225 232 221 220 166 155 179 188 194 202 207 209 216 232 217 162 168 163 164 181 187 175 173 172 187 191 187 307 322 323 321 305 261 172 201 220 195 194 196 176 136 126 125 193 217 182 168 245 248 259 310 287 305 314 290 263 237 218 244 261 247 229 225 208 198
259 242 286 194 184 178 193 214 192 198 209 214 222 214 217 231 207 208 211 204 209 203 202 221 195 184 208 174 163 182 194 205 214 211 213 224 254 325 178 180 177 185 200 175 156 167 177 184 178 186 214 226 229 232 222 186 146 207 216 197 201 191 175 183 186 166 228 219 169 191 238 242 323 305 282 303 310 278 270 261 231 237 253 257 242 220 199 189
267 225 200 206 197 195 211 206 194 196 195 205 217 210 215 224 219 210 209 213 217 207 214 252 149 169 197 185 182 188 204 218 220 189 205 216 220 320 207 185 192 202 181 107 136 150 148 197 192 197 211 219 227 230 151 133 147 208 212 194 198 200 192 193 192 202 217 185 170 221 231 240 262 247 246 269 257 246 267 270 250 241 248 257 247 221 198 192
256 246 199 204 220 207 206 200 197 199 189 190 197 189 206 219 228 206 201 216 214 204 218 237 175 194 201 192 205 207 199 214 220 200 207 210 202 356 47 160 208 211 134 110 157 140 107 226 208 207 219 228 235 227 158 154 175 201 204 196 200 201 193 193 209 214 188 144 230 235 220 238 254 233 212 239 242 244 256 250 247 249 253 255 222 179 197 200
226 262 241 242 285 221 214 201 197 200 191 183 181 171 194 214 222 209 202 218 219 207 211 213 207 214 211 203 211 216 196 201 216 217 218 209 169 130 76 138 222 192 138 156 205 147 147 222 216 209 224 234 234 204 179 187 191 200 202 200 199 197 193 201 215 214 177 183 239 235 162 215 247 241 215 214 209 230 243 242 248 257 257 253 174 180 215 211
217 264 279 307 293 251 281 269 200 209 198 180 172 183 188 200 212 211 198 200 226 218 206 215 221 219 218 212 208 211 207 203 216 219 214 205 182 165 176 216 224 187 155 173 207 177 177 223 221 203 220 238 234 196 186 201 200 206 210 204 198 197 200 206 215 215 201 219 243 242 192 234 248 233 205 201 205 232 254 268 261 252 249 234 204 221 234 223
213 245 247 309 291 259 295 318 236 240 215 190 189 199 195 200 206 208 200 188 202 207 200 219 227 220 216 216 212 217 215 210 221 224 202 199 206 187 195 206 173 162 180 177 183 245 209 223 222 177 214 245 238 205 193 202 200 210 220 216 211 207 206 211 216 215 212 233 246 249 256 261 256 182 181 197 207 236 262 261 244 241 239 225 215 230 238 232
229 291 87 13 292 232 249 256 221 249 241 205 198 188 192 209 209 206 210 205 204 201 195 217 231 231 223 220 217 225 227 221 227 228 185 199 214 203 206 205 145 147 188 177 129 161 199 215 125 122 217 247 234 199 192 196 202 231 233 226 219 212 208 211 214 211 207 222 237 244 250 254 237 136 168 194 199 226 246 249 246 241 227 218 220 229 234 236
225 288 75 146 262 224 222 247 212 224 236 213 208 195 192 208 202 194 212 225 216 217 208 217 231 235 232 231 227 230 238 237 231 221 171 207 221 189 182 189 166 163 173 165 147 162 178 193 183 164 215 247 229 179 168 144 126 243 234 227 221 210 201 206 214 217 210 210 219 227 236 243 230 153 182 203 207 225 238 242 244 241 225 215 222 229 232 235